{"data":{"norad_id":60290,"epoch":"2026-09-21T14:36:39.543264Z","epoch_age_seconds":86415,"freshness":"FRESH","line1":"1 60290U 24132N   26264.60879101 -.00001128  00000+0 -22258-4 0  9997","line2":"2 60290  53.1591 220.4812 0001366  85.4537 274.6622 15.34389238121582","mean_motion":15.34389238,"eccentricity":0.0001366,"inclination_deg":53.1591,"raan_deg":220.4812,"arg_perigee_deg":85.4537,"mean_anomaly_deg":274.6622,"bstar":-2.2258e-5,"rev_number":12158,"period_min":93.848416316903,"perigee_km":461.8007641798,"apogee_km":463.66969047231,"semimajor_km":6840.8722273261,"source":"CELESTRAK","updated_at":"2026-09-22T09:00:49.193901Z"}}